Location: Nashville
(36.1660°N, 86.7840°W)
Time: 00:09:27
(UTC-05:00)

Vanguard 2 - Pass Details

Date: 28 June 2022
Orbit: 552 x 2934 km, 32.9° (Epoch: 10 August)

Event Time Altitude Azimuth Distance (km) Brightness Sun altitude
Rises 22:33:32 0° 266° (W) 3,643 11.4 -22.4°
Reaches altitude 10° 22:36:37 10° 263° (W) 2,403 10.4 -22.7°
Enters shadow 22:41:15 53° 216° (SW) 793 7.4 -23.2°
